Overview Statistics Trail Chart Weather Telemetry Raw packets
 

This is the latest recevied weather packets stored in our database for station/object AB1AU. If no packets are shown the sender has not sent any weather packets the latest 10 day(s).

<< 23 24 25 26 27 28 29 >>
Time Temp. Humidity Pressure Rain* Wind** Luminosity Snow
1788459582 18.33° C 93% 1015.1 hPa 0 mm - 59 W/m² -
1788459281 18.33° C 93% 1015.1 hPa 0 mm - 52 W/m² -
1788458976 18.33° C 92% 1015.1 hPa 0 mm - 32 W/m² -
1788458671 18.33° C 93% 1015.2 hPa 0 mm - 40 W/m² -
1788458370 18.33° C 92% 1015 hPa 0 mm - 63 W/m² -
1788458065 18.33° C 93% 1015.3 hPa 0 mm - 61 W/m² -
1788457759 18.33° C 93% 1015.3 hPa 0 mm - 47 W/m² -
1788457455 18.33° C 93% 1015.2 hPa 0 mm - 27 W/m² -
1788457155 18.33° C 93% 1015.3 hPa 0 mm - 29 W/m² -
1788456855 17.78° C 93% 1015.3 hPa 0 mm - 61 W/m² -
1788456551 17.78° C 93% 1015.5 hPa 0 mm - 70 W/m² -
1788456250 17.78° C 94% 1015.5 hPa 0 mm - 60 W/m² -
1788455946 17.78° C 94% 1015.6 hPa 0 mm - 70 W/m² -
1788455641 17.78° C 94% 1015.4 hPa 0 mm - 76 W/m² -
1788455341 17.78° C 94% 1015.3 hPa 0 mm - 74 W/m² -
1788455035 17.78° C 94% 1015.2 hPa 0 mm - 63 W/m² -
1788454734 17.78° C 94% 1015.4 hPa 0 mm - 44 W/m² -
1788454429 17.78° C 95% 1015.5 hPa 0 mm - 50 W/m² -
1788454123 17.78° C 95% 1015.5 hPa 0 mm - 62 W/m² -
1788453819 17.78° C 95% 1015.5 hPa 0 mm - 42 W/m² -
1788453518 17.78° C 95% 1015.6 hPa 0 mm - 45 W/m² -
1788453215 17.78° C 95% 1015.6 hPa 0 mm - 36 W/m² -
1788452910 17.78° C 95% 1015.9 hPa 0 mm - 45 W/m² -
1788452607 17.78° C 95% 1015.9 hPa 0 mm - 26 W/m² -
1788452302 17.78° C 95% 1016.2 hPa 0 mm - 33 W/m² -

* Rain latest hour (hover to see other rain measurements)
** Current wind speed in m/s (hover to see current wind gust speed)